Newport News, VA

6:12 AM EST on February 08, 2016 (GMT -0500)
Felker Army Air Field

Weather History for KFAF - May, 2013

Change the Weather History Date:

Saturday, May 25, 2013

  Actual Average Record
Temperature  
Mean Temperature 57 °F -  
Max Temperature 67 °F 76 °F 91 °F (2004)
Min Temperature 47 °F 59 °F 47 °F (2013)
Degree Days  
Heating Degree Days 8    
Growing Degree Days 7 (Base 50)    
Moisture  
Dew Point 38 °F    
Average Humidity 52    
Maximum Humidity 72    
Minimum Humidity 35    
Precipitation  
Precipitation 0.00 in - - ()
Sea Level Pressure  
Sea Level Pressure 30.15 in    
Wind  
Wind Speed 14 mph (NW)    
Max Wind Speed 22 mph    
Max Gust Speed 29 mph    
Visibility 10 miles    
Events      
Averages and records for this station are not official NWS values.
T = Trace of Precipitation, MM = Missing Value Source: NWS Daily Summary

Daily Weather History Graph

Daily Weather History Graph

Search for Another Location

Airport or City:

Trip Planner

Search our weather history database for the weather conditions in past years. The results will help you decide how hot, cold, wet, or windy it might be!

Date:

Astronomy

May. 25, 2013 Rise Set
Actual Time 5:51 AM EDT 8:16 PM EDT
Civil Twilight 5:21 AM EDT 8:46 PM EDT
Nautical Twilight 4:44 AM EDT 9:23 PM EDT
Astronomical Twilight 4:03 AM EDT 10:03 PM EDT
Moon 9:02 PM EDT (5/25) 6:15 AM EDT (5/25)
Length of Visible Light 15h 24m
Length of Day
14h 25m
Full, 100% of the Moon is Illuminated
May 25
Full
May 31
Last Quarter
Jun 8
New
Jun 16
First Quarter
Jun 23
Full

Hourly Weather History & Observations

Time (EDT) Temp. Dew Point Humidity Pressure Visibility Wind Dir Wind Speed Gust Speed Precip Events Conditions
12:30 AM 53.6 °F 35.6 °F 51% 30.13 in 10.0 mi NW 17.3 mph 24.2 mph N/A   Clear
12:37 AM 53.6 °F 35.6 °F 51% 30.13 in 10.0 mi WNW 17.3 mph 24.2 mph N/A   Clear
12:38 AM 53.6 °F 35.6 °F 51% 30.13 in 10.0 mi WNW 17.3 mph 24.2 mph N/A   Clear
12:39 AM 53.6 °F 35.6 °F 51% 30.14 in 10.0 mi NNW 16.1 mph 26.5 mph N/A   Clear
12:58 AM 52.5 °F 35.4 °F 52% 30.15 in 10.0 mi North 16.1 mph 28.8 mph N/A   Clear
1:58 AM 51.1 °F 35.1 °F 54% 30.15 in 10.0 mi NNW 13.8 mph 26.5 mph N/A   Clear
2:58 AM 49.6 °F 34.2 °F 55% 30.15 in 10.0 mi NW 15.0 mph 24.2 mph N/A   Clear
3:47 AM 48.2 °F 32.0 °F 54% 30.15 in 10.0 mi NNW 16.1 mph 25.3 mph N/A   Light Drizzle
3:58 AM 48.7 °F 34.2 °F 57% 30.16 in 10.0 mi NW 13.8 mph 24.2 mph 0.00 in   Light Drizzle
4:58 AM 48.0 °F 34.5 °F 60% 30.18 in 10.0 mi NNW 10.4 mph 21.9 mph 0.00 in   Light Drizzle
5:44 AM 48.2 °F 35.6 °F 62% 30.17 in 10.0 mi NNW 13.8 mph 26.5 mph N/A   Clear
5:58 AM 47.5 °F 34.7 °F 61% 30.19 in 10.0 mi NW 15.0 mph 23.0 mph 0.00 in   Clear
6:58 AM 48.0 °F 34.7 °F 60% 30.20 in 10.0 mi NW 18.4 mph 28.8 mph N/A   Clear
7:58 AM 49.8 °F 35.4 °F 58% 30.21 in 10.0 mi NW 13.8 mph 23.0 mph N/A   Clear
8:58 AM 52.0 °F 36.1 °F 55% 30.20 in 10.0 mi NW 13.8 mph - N/A   Clear
9:58 AM 54.7 °F 35.8 °F 49% 30.18 in 10.0 mi NNW 12.7 mph 21.9 mph N/A   Clear
10:58 AM 57.0 °F 37.9 °F 49% 30.18 in 10.0 mi WNW 15.0 mph - N/A   Partly Cloudy
11:58 AM 59.7 °F 38.5 °F 45% 30.17 in 10.0 mi NW 15.0 mph 21.9 mph N/A   Scattered Clouds
12:58 PM 61.0 °F 38.8 °F 44% 30.16 in 10.0 mi WNW 12.7 mph 20.7 mph N/A   Mostly Cloudy
1:58 PM 62.4 °F 37.8 °F 40% 30.15 in 10.0 mi NW 21.9 mph 26.5 mph N/A   Scattered Clouds
2:58 PM 63.7 °F 38.8 °F 40% 30.13 in 10.0 mi West 15.0 mph 24.2 mph N/A   Scattered Clouds
3:16 PM 62.6 °F 39.2 °F 42% 30.12 in 10.0 mi NW 16.1 mph 21.9 mph N/A   Light Drizzle
3:58 PM 64.0 °F 39.0 °F 40% 30.12 in 10.0 mi WNW 11.5 mph 17.3 mph 0.00 in   Light Drizzle
4:58 PM 65.8 °F 41.4 °F 41% 30.12 in 10.0 mi WNW 13.8 mph - 0.00 in   Light Drizzle
5:02 PM 66.2 °F 41.0 °F 40% 30.11 in 10.0 mi WNW 10.4 mph - N/A   Clear
5:58 PM 67.1 °F 38.3 °F 35% 30.11 in 10.0 mi WNW 12.7 mph 19.6 mph 0.00 in   Clear
6:58 PM 65.5 °F 37.4 °F 35% 30.11 in 10.0 mi West 6.9 mph - N/A   Clear
7:58 PM 63.9 °F 40.3 °F 42% 30.13 in 10.0 mi West 5.8 mph - N/A   Clear
8:58 PM 62.6 °F 41.4 °F 46% 30.14 in 10.0 mi West 2.3 mph - N/A   Clear
9:41 PM 55.4 °F 46.4 °F 72% 30.14 in 10.0 mi ENE 2.3 mph - N/A   Light Drizzle
9:58 PM 55.8 °F 45.0 °F 67% 30.16 in 10.0 mi Calm Calm - 0.00 in   Light Drizzle
10:58 PM 54.0 °F 43.9 °F 69% 30.17 in 10.0 mi NE 1.2 mph - 0.00 in   Light Drizzle
11:58 PM 51.8 °F 43.0 °F 72% 30.18 in 10.0 mi WSW 1.2 mph - 0.00 in   Light Drizzle